Fort Campbell, KY

9:09 PM CST on December 15, 2017 (GMT -0600)
Campbell Army Air Field

Weather History for KHOP - December, 2012

Change the Weather History Date:

Wednesday, December 26, 2012

  Actual Average Record
Temperature  
Mean Temperature 34 °F -  
Max Temperature 36 °F 43 °F 74 °F (2016)
Min Temperature 32 °F 26 °F 8 °F (2004)
Degree Days  
Heating Degree Days 31    
Moisture  
Dew Point 33 °F    
Average Humidity 98    
Maximum Humidity 100    
Minimum Humidity 86    
Precipitation  
Precipitation 0.70 in - - ()
Sea Level Pressure  
Sea Level Pressure 29.66 in    
Wind  
Wind Speed 17 mph (NNW)    
Max Wind Speed 24 mph    
Max Gust Speed 33 mph    
Visibility 7 miles    
Events Rain , Snow    
Averages and records for this station are not official NWS values.
T = Trace of Precipitation, MM = Missing Value Source: NWS Daily Summary

Daily Weather History Graph

Daily Weather History Graph

Search for Another Location

Airport or City:

Trip Planner

Search our weather history database for the weather conditions in past years. The results will help you decide how hot, cold, wet, or windy it might be!

Date:

Astronomy

Dec. 26, 2012 Rise Set
Actual Time 7:00 AM CST 4:40 PM CST
Civil Twilight 6:32 AM CST 5:09 PM CST
Nautical Twilight 5:59 AM CST 5:42 PM CST
Astronomical Twilight 5:28 AM CST 6:13 PM CST
Moon 3:33 PM CST (12/26) 5:24 AM CST (12/26)
Length of Visible Light 10h 37m
Length of Day
9h 39m
Waxing Gibbous, 97% of the Moon is Illuminated
Dec 26
Waxing Gibbous
Dec 28
Full
Jan 4
Last Quarter
Jan 11
New
Jan 18
First Quarter

Hourly Weather History & Observations

Time (CST) Temp. Windchill Dew Point Humidity Pressure Visibility Wind Dir Wind Speed Gust Speed Precip Events Conditions
12:02 AM 35.6 °F 24.8 °F 35.6 °F 100% 29.57 in 10.0 mi NE 19.6 mph 31.1 mph N/A   Light Drizzle
12:10 AM 35.6 °F 23.7 °F 35.6 °F 100% 29.56 in 10.0 mi ENE 24.2 mph 29.9 mph N/A   Overcast
12:19 AM 35.6 °F 24.0 °F 35.6 °F 100% 29.55 in 10.0 mi ENE 23.0 mph 31.1 mph N/A   Light Drizzle
12:29 AM 35.6 °F 24.5 °F 35.6 °F 100% 29.54 in 7.0 mi NE 20.7 mph 31.1 mph N/A   Overcast
12:31 AM 35.6 °F 24.2 °F 35.6 °F 100% 29.54 in 6.0 mi ENE 21.9 mph 31.1 mph N/A   Overcast
12:36 AM 35.6 °F 25.2 °F 35.6 °F 100% 29.54 in 3.0 mi NE 18.4 mph 29.9 mph N/A Rain Light Rain
12:37 AM 35.6 °F 25.5 °F 35.6 °F 100% 29.54 in 2.5 mi NE 17.3 mph 29.9 mph N/A Rain Light Rain
12:50 AM 35.6 °F 25.2 °F 35.6 °F 100% 29.53 in 3.0 mi NE 18.4 mph 26.5 mph N/A Rain Rain
12:55 AM 36.1 °F 26.5 °F 36.1 °F 100% 29.54 in 3.0 mi NE 16.1 mph 28.8 mph 0.13 in Rain Heavy Rain
1:10 AM 35.6 °F 27.1 °F 35.6 °F 100% 29.57 in 2.5 mi NE 12.7 mph 23.0 mph N/A Rain Heavy Rain
1:18 AM 35.6 °F 28.0 °F 35.6 °F 100% 29.57 in 3.0 mi NE 10.4 mph - N/A Rain Heavy Rain
1:55 AM 36.5 °F 29.7 °F 36.5 °F 100% 29.56 in 6.0 mi NNW 9.2 mph - 0.33 in Rain Heavy Rain
2:13 AM 35.6 °F 26.6 °F 35.6 °F 100% 29.54 in 7.0 mi NNW 13.8 mph - N/A Rain Light Rain
2:22 AM 35.6 °F 25.9 °F 35.6 °F 100% 29.52 in 10.0 mi North 16.1 mph 23.0 mph N/A Rain Rain
2:26 AM 35.6 °F 25.9 °F 35.6 °F 100% 29.52 in 10.0 mi North 16.1 mph 23.0 mph N/A Rain Light Rain
2:30 AM 35.6 °F 24.2 °F 35.6 °F 100% 29.51 in 10.0 mi North 21.9 mph 26.5 mph N/A Rain Light Rain
2:33 AM 35.6 °F 23.7 °F 35.6 °F 100% 29.50 in 10.0 mi North 24.2 mph 28.8 mph N/A Rain Light Rain
2:40 AM 35.6 °F 24.8 °F 35.6 °F 100% 29.50 in 10.0 mi North 19.6 mph 28.8 mph N/A   Overcast
2:46 AM 35.6 °F 25.5 °F 35.6 °F 100% 29.51 in 10.0 mi North 17.3 mph 23.0 mph N/A   Overcast
2:47 AM 35.6 °F 25.9 °F 35.6 °F 100% 29.51 in 10.0 mi North 16.1 mph 23.0 mph N/A   Overcast
2:49 AM 35.6 °F 24.5 °F 35.6 °F 100% 29.50 in 10.0 mi North 20.7 mph 26.5 mph N/A   Overcast
2:52 AM 35.6 °F 25.5 °F 35.6 °F 100% 29.50 in 10.0 mi North 17.3 mph 26.5 mph N/A Rain Light Rain
2:55 AM 35.4 °F 23.7 °F 35.4 °F 100% 29.50 in 10.0 mi North 23.0 mph 26.5 mph 0.09 in Rain Light Rain
3:36 AM 35.6 °F 25.5 °F 35.6 °F 100% 29.48 in 10.0 mi North 17.3 mph 31.1 mph N/A Rain Light Rain
3:55 AM 34.9 °F 24.2 °F 34.9 °F 100% 29.47 in 10.0 mi North 18.4 mph 26.5 mph 0.01 in Rain Light Rain
4:08 AM 35.6 °F 25.2 °F 35.6 °F 100% 29.48 in 10.0 mi North 18.4 mph 26.5 mph N/A Rain Light Rain
4:17 AM 35.6 °F 26.2 °F 35.6 °F 100% 29.48 in 10.0 mi North 15.0 mph 21.9 mph N/A Rain Rain
4:42 AM 33.8 °F 24.3 °F 33.8 °F 100% 29.49 in 9.0 mi North 13.8 mph 17.3 mph N/A Rain Rain
4:47 AM 33.8 °F 23.5 °F 33.8 °F 100% 29.48 in 10.0 mi North 16.1 mph - N/A Rain Rain
4:55 AM 34.3 °F 25.5 °F 34.3 °F 100% 29.49 in 10.0 mi North 12.7 mph 19.6 mph 0.09 in Rain Rain
5:08 AM 33.8 °F 27.7 °F 33.8 °F 100% 29.50 in 10.0 mi NNW 6.9 mph - N/A   Light Drizzle
5:55 AM 33.8 °F 25.3 °F 33.6 °F 99% 29.50 in 10.0 mi NNW 11.5 mph - 0.01 in   Overcast
6:08 AM 33.8 °F 24.3 °F 33.8 °F 100% 29.50 in 10.0 mi NNW 13.8 mph 21.9 mph N/A Snow Light Snow
6:10 AM 32.0 °F 23.0 °F 32.0 °F 100% 29.52 in 10.0 mi NNW 11.5 mph 21.9 mph N/A Snow Light Snow
6:45 AM 33.8 °F 24.8 °F 33.8 °F 100% 29.54 in 9.0 mi NW 12.7 mph 20.7 mph N/A Snow Light Ice Pellets
6:55 AM 33.1 °F 23.9 °F 33.1 °F 100% 29.55 in 9.0 mi NW 12.7 mph 20.7 mph 0.02 in Snow Light Snow
7:13 AM 33.8 °F 24.8 °F 33.8 °F 100% 29.56 in 8.0 mi NW 12.7 mph 20.7 mph N/A Snow Light Snow
7:25 AM 33.8 °F 23.5 °F 33.8 °F 100% 29.57 in 3.0 mi WNW 16.1 mph 21.9 mph N/A Snow Light Snow
7:29 AM 32.0 °F 22.5 °F 32.0 °F 100% 29.57 in 2.5 mi NW 12.7 mph 21.9 mph N/A Snow Light Snow
7:30 AM 32.0 °F 21.6 °F 32.0 °F 100% 29.57 in 2.5 mi NW 15.0 mph 21.9 mph N/A Snow Light Snow
7:36 AM 32.0 °F 21.2 °F 32.0 °F 100% 29.58 in 1.8 mi NW 16.1 mph 21.9 mph N/A Snow Light Snow
7:55 AM 32.5 °F 22.3 °F 32.5 °F 100% 29.59 in 1.5 mi NW 15.0 mph 23.0 mph 0.02 in Snow Light Snow
8:04 AM 32.0 °F 21.6 °F 32.0 °F 100% 29.59 in 2.0 mi NW 15.0 mph 24.2 mph N/A Snow Light Snow
8:21 AM 32.0 °F 21.6 °F 32.0 °F 100% 29.61 in 1.8 mi NW 15.0 mph 23.0 mph N/A Snow Light Snow
8:34 AM 32.0 °F 21.6 °F 32.0 °F 100% 29.62 in 2.0 mi NW 15.0 mph 24.2 mph N/A Snow Light Snow
8:37 AM 32.0 °F 21.6 °F 32.0 °F 100% 29.62 in 2.0 mi NW 15.0 mph 24.2 mph N/A Snow Light Snow
8:44 AM 32.0 °F 20.8 °F 32.0 °F 100% 29.62 in 2.5 mi NW 17.3 mph 23.0 mph N/A Snow Light Snow
8:53 AM 32.0 °F 22.1 °F 32.0 °F 100% 29.63 in 2.5 mi NW 13.8 mph 26.5 mph N/A Snow Light Snow
8:55 AM 32.7 °F 22.1 °F 32.7 °F 100% 29.63 in 2.5 mi NW 16.1 mph 26.5 mph 0.00 in Snow Light Snow
9:00 AM 32.0 °F 21.6 °F 32.0 °F 100% 29.64 in 3.0 mi NW 15.0 mph 26.5 mph N/A Snow Light Snow
9:03 AM 32.0 °F 21.2 °F 32.0 °F 100% 29.64 in 3.0 mi NW 16.1 mph 24.2 mph N/A Snow Light Snow
9:18 AM 32.0 °F 22.1 °F 32.0 °F 100% 29.65 in 6.0 mi NW 13.8 mph 24.2 mph N/A Snow Light Snow
9:31 AM 33.8 °F 23.5 °F 32.0 °F 93% 29.66 in 7.0 mi NW 16.1 mph - N/A Snow Light Snow
9:48 AM 33.8 °F 23.9 °F 32.0 °F 93% 29.67 in 10.0 mi NW 15.0 mph 23.0 mph N/A Snow Light Snow
9:55 AM 33.3 °F 23.2 °F 33.1 °F 99% 29.68 in 10.0 mi NW 15.0 mph 23.0 mph 0.00 in Snow Light Snow
10:17 AM 33.8 °F 22.5 °F 33.8 °F 100% 29.70 in 10.0 mi NW 19.6 mph 25.3 mph N/A   Overcast
10:25 AM 33.8 °F 23.2 °F 33.8 °F 100% 29.70 in 10.0 mi NW 17.3 mph 26.5 mph N/A Snow Light Snow
10:55 AM 33.1 °F 23.0 °F 32.9 °F 99% 29.73 in 8.0 mi WNW 15.0 mph 24.2 mph 0.00 in Snow Light Snow
11:04 AM 33.8 °F 23.2 °F 32.0 °F 93% 29.73 in 6.0 mi WNW 17.3 mph 24.2 mph N/A Snow Light Snow
11:10 AM 32.0 °F 21.2 °F 32.0 °F 100% 29.74 in 2.5 mi WNW 16.1 mph 25.3 mph N/A Snow Light Snow
11:12 AM 32.0 °F 21.2 °F 32.0 °F 100% 29.74 in 1.8 mi WNW 16.1 mph 25.3 mph N/A Snow Light Snow
11:14 AM 32.0 °F 20.8 °F 32.0 °F 100% 29.74 in 1.2 mi WNW 17.3 mph 25.3 mph N/A Snow Light Snow
11:21 AM 32.0 °F 20.5 °F 32.0 °F 100% 29.75 in 1.5 mi WNW 18.4 mph 26.5 mph N/A Snow Light Snow
11:24 AM 32.0 °F 19.8 °F 32.0 °F 100% 29.75 in 1.8 mi WNW 20.7 mph 26.5 mph N/A Snow Light Snow
11:26 AM 32.0 °F 20.8 °F 32.0 °F 100% 29.75 in 2.0 mi WNW 17.3 mph 26.5 mph N/A Snow Light Snow
11:31 AM 32.0 °F 21.2 °F 32.0 °F 100% 29.75 in 2.5 mi WNW 16.1 mph - N/A Snow Light Snow
11:32 AM 32.0 °F 21.2 °F 32.0 °F 100% 29.75 in 3.0 mi WNW 16.1 mph 25.3 mph N/A Snow Light Snow
11:44 AM 32.0 °F 20.5 °F 32.0 °F 100% 29.76 in 10.0 mi WNW 18.4 mph 24.2 mph N/A Snow Light Snow
11:51 AM 32.0 °F 21.2 °F 32.0 °F 100% 29.76 in 10.0 mi WNW 16.1 mph 25.3 mph N/A   Overcast
11:55 AM 32.9 °F 21.3 °F 32.5 °F 99% 29.76 in 10.0 mi WNW 19.6 mph 28.8 mph 0.00 in   Overcast
12:20 PM 32.0 °F 21.2 °F 32.0 °F 100% 29.78 in 10.0 mi NW 16.1 mph 27.6 mph N/A Snow Light Snow
12:33 PM 32.0 °F 20.5 °F 32.0 °F 100% 29.79 in 10.0 mi WNW 18.4 mph 26.5 mph N/A Snow Light Snow
12:55 PM 32.5 °F 19.6 °F 31.1 °F 94% 29.81 in 10.0 mi WNW 24.2 mph 33.4 mph 0.00 in   Overcast
1:55 PM 32.2 °F 20.7 °F 29.7 °F 90% 29.84 in 10.0 mi NW 18.4 mph 29.9 mph N/A   Overcast
2:37 PM 32.0 °F 21.2 °F 30.2 °F 93% 29.87 in 10.0 mi NW 16.1 mph 33.4 mph N/A   Overcast
2:55 PM 32.5 °F 22.7 °F 29.5 °F 88% 29.88 in 10.0 mi NW 13.8 mph 27.6 mph N/A   Overcast
3:55 PM 32.7 °F 23.0 °F 29.3 °F 87% 29.93 in 10.0 mi NW 13.8 mph - N/A   Overcast
4:55 PM 32.7 °F 21.8 °F 29.1 °F 87% 29.97 in 10.0 mi NW 17.3 mph 24.2 mph N/A   Overcast
5:55 PM 32.9 °F 22.8 °F 29.5 °F 87% 30.01 in 10.0 mi NW 15.0 mph 20.7 mph N/A   Overcast
6:55 PM 33.3 °F 25.7 °F 29.5 °F 86% 30.04 in 10.0 mi NW 9.2 mph - N/A   Overcast
7:55 PM 33.1 °F 25.5 °F 29.3 °F 86% 30.07 in 10.0 mi NW 9.2 mph - N/A   Overcast
8:55 PM 33.1 °F 26.1 °F 29.3 °F 86% 30.08 in 10.0 mi NW 8.1 mph - N/A   Overcast
9:55 PM 32.9 °F 25.9 °F 29.5 °F 87% 30.11 in 10.0 mi WNW 8.1 mph - N/A   Overcast
10:55 PM 32.7 °F 25.0 °F 29.7 °F 88% 30.11 in 10.0 mi WNW 9.2 mph - N/A   Overcast
11:55 PM 32.4 °F 23.5 °F 29.1 °F 88% 30.13 in 10.0 mi WNW 11.5 mph - N/A   Overcast